Location: Newark
(15.4608°S, 41.1635°W)
Time: 23:51:16
(UTC+00:00)

Vanguard 3 - Pass Details

Date: 03 August 2021
Orbit: 510 x 3260 km, 33.3° (Epoch: 20 September)

Event Time Altitude Azimuth Distance (km) Brightness Sun altitude
Rises 15:15:09 0° 250° (WSW) 2,827 9.9 56.7°
Reaches altitude 10° 15:17:09 10° 257° (WSW) 2,070 9.4 56.6°
Maximum altitude 15:21:36 45° 330° (NNW) 1,158 9.9 56.3°
Drops below altitude 10° 15:28:44 10° 41° (NE) 3,296 10.7 55.9°
Sets 15:32:43 0° 46° (NE) 4,741 11.3 55.6°
